Weather History for Ogallala, NE

Change the Weather History Date:

Wednesday, January 23, 2013

  Actual Average Record
Temperature  
Mean Temperature 30 °F -  
Max Temperature 42 °F 40 °F 71 °F (1967)
Min Temperature 18 °F 14 °F -19 °F (1966)
Degree Days  
Heating Degree Days 35    
Moisture  
Dew Point 16 °F    
Average Humidity 64    
Maximum Humidity 80    
Minimum Humidity 35    
Precipitation  
Precipitation 0.00 in - - ()
Sea Level Pressure  
Sea Level Pressure 30.17 in    
Wind  
Wind Speed 6 mph (East)    
Max Wind Speed 15 mph    
Max Gust Speed -    
Visibility 10 miles    
Events      
Averages and records for this station are not official NWS values.
T = Trace of Precipitation, MM = Missing Value Source: NWS Daily Summary

Daily Weather History Graph

Daily Weather History Graph

Search for Another Location

Airport:

Trip Planner

Search our weather history database for the weather conditions in past years. The results will help you decide how hot, cold, wet, or windy it might be!

Date:

Astronomy

Jan. 23, 2013 Rise Set
Actual Time 7:05 AM MST 4:53 PM MST
Civil Twilight 6:35 AM MST 5:22 PM MST
Nautical Twilight 6:02 AM MST 5:56 PM MST
Astronomical Twilight 5:29 AM MST 6:29 PM MST
Moon 2:04 PM MST (1/23) 4:18 AM MST (1/23)
Length of Visible Light 10h 47m
Length of Day
9h 47m
Waxing Gibbous, 89% of the Moon is Illuminated
Jan 23
Waxing Gibbous
Jan 26
Full
Feb 3
Last Quarter
Feb 10
New
Feb 17
First Quarter

Hourly Weather History & Observations

Time (MST) Temp. Windchill Dew Point Humidity Pressure Visibility Wind Dir Wind Speed Gust Speed Precip Events Conditions
12:35 AM 22.5 °F 16.3 °F 15.6 °F 75% 30.11 in 10.0 mi West 4.6 mph - N/A   Clear
12:55 AM 21.9 °F 17.2 °F 14.9 °F 74% 30.10 in 10.0 mi SW 3.5 mph - N/A   Clear
12:57 AM 21.2 °F 14.9 °F 15.8 °F 80% 30.10 in 10.0 mi SW 4.6 mph - N/A   Clear
1:15 AM 23.0 °F - 15.3 °F 72% 30.10 in 10.0 mi Calm Calm - N/A   Clear
1:35 AM 21.7 °F 17.0 °F 14.2 °F 73% 30.11 in 10.0 mi West 3.5 mph - N/A   Clear
1:55 AM 21.7 °F 14.3 °F 14.7 °F 74% 30.11 in 10.0 mi West 5.8 mph - N/A   Clear
2:41 AM 21.2 °F 14.9 °F 15.8 °F 80% 30.10 in 10.0 mi West 4.6 mph - N/A   Clear
2:55 AM 19.4 °F 14.3 °F 12.9 °F 76% 30.10 in 10.0 mi West 3.5 mph - N/A   Clear
3:15 AM 20.7 °F 15.8 °F 13.6 °F 74% 30.09 in 10.0 mi West 3.5 mph - N/A   Clear
3:18 AM 21.2 °F 16.4 °F 14.0 °F 74% 30.09 in 10.0 mi West 3.5 mph - N/A   Clear
3:35 AM 21.4 °F 15.1 °F 13.3 °F 71% 30.09 in 10.0 mi WNW 4.6 mph - N/A   Clear
3:55 AM 19.9 °F 14.9 °F 13.1 °F 75% 30.09 in 10.0 mi West 3.5 mph - N/A   Clear
4:15 AM 19.2 °F 10.2 °F 13.1 °F 77% 30.08 in 10.0 mi West 6.9 mph - N/A   Clear
4:35 AM 19.2 °F 11.3 °F 13.3 °F 78% 30.09 in 10.0 mi West 5.8 mph - N/A   Clear
4:55 AM 19.2 °F - 13.5 °F 78% 30.08 in 10.0 mi Calm Calm - N/A   Clear
5:15 AM 18.7 °F 11.9 °F 13.3 °F 79% 30.09 in 10.0 mi West 4.6 mph - N/A   Clear
5:35 AM 19.9 °F 13.4 °F 13.6 °F 77% 30.08 in 10.0 mi West 4.6 mph - N/A   Clear
5:55 AM 19.6 °F - 14.0 °F 79% 30.08 in 10.0 mi Calm Calm - N/A   Clear
6:15 AM 21.0 °F 12.4 °F 15.1 °F 78% 30.08 in 10.0 mi West 6.9 mph - N/A   Clear
6:35 AM 21.2 °F 14.9 °F 15.6 °F 79% 30.09 in 10.0 mi West 4.6 mph - N/A   Clear
6:55 AM 21.2 °F 16.4 °F 16.0 °F 80% 30.09 in 10.0 mi West 3.5 mph - N/A   Clear
7:15 AM 22.8 °F 15.5 °F 15.8 °F 74% 30.10 in 10.0 mi West 5.8 mph - N/A   Clear
7:35 AM 22.5 °F 15.1 °F 16.3 °F 77% 30.11 in 10.0 mi WSW 5.8 mph - N/A   Clear
7:55 AM 23.7 °F 16.6 °F 17.2 °F 76% 30.11 in 10.0 mi West 5.8 mph - N/A   Clear
8:15 AM 25.3 °F 18.5 °F 17.8 °F 73% 30.11 in 10.0 mi WSW 5.8 mph - N/A   Clear
8:35 AM 26.8 °F 17.1 °F 18.7 °F 72% 30.11 in 10.0 mi West 10.4 mph - N/A   Clear
8:55 AM 27.9 °F 20.6 °F 18.7 °F 68% 30.13 in 10.0 mi West 6.9 mph - N/A   Clear
9:15 AM 30.0 °F 22.4 °F 19.2 °F 64% 30.14 in 10.0 mi West 8.1 mph - N/A   Clear
9:35 AM 31.3 °F - 19.4 °F 61% 30.15 in 10.0 mi Calm Calm - N/A   Clear
9:55 AM 32.9 °F 28.5 °F 19.4 °F 58% 30.17 in 10.0 mi ENE 4.6 mph - N/A   Clear
10:15 AM 35.6 °F 30.7 °F 17.8 °F 48% 30.18 in 10.0 mi NNE 5.8 mph - N/A   Clear
10:35 AM 40.6 °F 36.0 °F 14.5 °F 35% 30.18 in 10.0 mi ENE 6.9 mph - N/A   Clear
10:55 AM 41.5 °F 37.1 °F 15.3 °F 35% 30.17 in 10.0 mi East 6.9 mph - N/A   Clear
11:15 AM 40.5 °F 35.1 °F 15.6 °F 37% 30.17 in 10.0 mi East 8.1 mph - N/A   Clear
11:35 AM 40.3 °F 35.5 °F 17.2 °F 39% 30.16 in 10.0 mi East 6.9 mph - N/A   Clear
11:55 AM 40.3 °F 35.5 °F 18.3 °F 41% 30.16 in 10.0 mi East 6.9 mph - N/A   Clear
12:15 PM 41.9 °F 36.9 °F 17.4 °F 37% 30.15 in 10.0 mi East 8.1 mph - N/A   Clear
12:35 PM 41.2 °F 36.0 °F 18.3 °F 40% 30.15 in 10.0 mi East 8.1 mph - N/A   Clear
12:55 PM 41.0 °F 35.8 °F 19.2 °F 42% 30.15 in 10.0 mi East 8.1 mph - N/A   Clear
1:15 PM 41.0 °F 35.8 °F 19.8 °F 43% 30.15 in 10.0 mi East 8.1 mph - N/A   Clear
1:35 PM 42.4 °F 36.5 °F 19.2 °F 39% 30.16 in 10.0 mi ENE 10.4 mph - N/A   Clear
1:55 PM 42.1 °F 35.7 °F 19.0 °F 40% 30.17 in 10.0 mi ENE 11.5 mph - N/A   Clear
2:15 PM 41.5 °F 34.6 °F 19.2 °F 41% 30.18 in 10.0 mi East 12.7 mph - N/A   Clear
2:35 PM 40.1 °F 32.4 °F 19.4 °F 43% 30.18 in 10.0 mi ENE 13.8 mph - N/A   Clear
2:55 PM 40.6 °F 32.7 °F 19.2 °F 42% 30.18 in 10.0 mi ENE 15.0 mph - N/A   Clear
3:15 PM 38.5 °F 31.6 °F 19.0 °F 46% 30.18 in 10.0 mi East 10.4 mph - N/A   Clear
3:35 PM 36.9 °F 28.7 °F 18.9 °F 48% 30.19 in 10.0 mi East 12.7 mph - N/A   Clear
3:55 PM 35.1 °F 25.9 °F 19.0 °F 52% 30.19 in 10.0 mi East 13.8 mph - N/A   Clear
4:15 PM 33.3 °F 24.6 °F 19.0 °F 56% 30.19 in 10.0 mi East 11.5 mph - N/A   Clear
4:35 PM 32.0 °F 22.5 °F 18.5 °F 58% 30.21 in 10.0 mi East 12.7 mph - N/A   Clear
4:55 PM 31.3 °F 22.1 °F 18.5 °F 59% 30.22 in 10.0 mi ENE 11.5 mph - N/A   Clear
5:15 PM 30.9 °F 21.7 °F 18.5 °F 60% 30.22 in 10.0 mi ENE 11.5 mph - N/A   Clear
5:35 PM 30.2 °F 21.9 °F 18.5 °F 62% 30.24 in 10.0 mi ENE 9.2 mph - N/A   Clear
5:55 PM 29.3 °F 20.8 °F 18.3 °F 64% 30.24 in 10.0 mi ENE 9.2 mph - N/A   Clear
6:15 PM 28.8 °F 19.0 °F 18.0 °F 64% 30.24 in 10.0 mi ENE 11.5 mph - N/A   Clear
6:35 PM 28.4 °F 19.1 °F 18.0 °F 65% 30.24 in 10.0 mi East 10.4 mph - N/A   Clear
6:55 PM 27.5 °F 18.0 °F 17.6 °F 66% 30.25 in 10.0 mi East 10.4 mph - N/A   Clear
7:15 PM 27.0 °F 16.7 °F 17.4 °F 67% 30.26 in 10.0 mi East 11.5 mph - N/A   Clear
7:35 PM 26.4 °F 15.5 °F 16.7 °F 67% 30.26 in 10.0 mi East 12.7 mph - N/A   Clear
7:55 PM 25.9 °F 17.4 °F 17.1 °F 69% 30.26 in 10.0 mi East 8.1 mph - N/A   Clear
8:15 PM 25.2 °F 14.4 °F 15.8 °F 68% 30.27 in 10.0 mi East 11.5 mph - N/A   Clear
8:35 PM 24.4 °F 13.5 °F 14.9 °F 67% 30.28 in 10.0 mi East 11.5 mph - N/A   Clear
8:55 PM 23.9 °F 13.5 °F 14.7 °F 68% 30.29 in 10.0 mi East 10.4 mph - N/A   Clear
9:15 PM 23.2 °F 13.3 °F 14.5 °F 70% 30.28 in 10.0 mi ESE 9.2 mph - N/A   Clear
9:35 PM 22.6 °F 11.9 °F 13.8 °F 69% 30.28 in 10.0 mi ESE 10.4 mph - N/A   Clear
9:55 PM 22.1 °F 11.3 °F 13.8 °F 70% 30.28 in 10.0 mi East 10.4 mph - N/A   Clear
10:15 PM 21.2 °F 12.6 °F 13.3 °F 72% 30.28 in 10.0 mi ESE 6.9 mph - N/A   Clear
10:35 PM 20.5 °F 10.8 °F 13.1 °F 73% 30.29 in 10.0 mi ESE 8.1 mph - N/A   Clear
10:55 PM 20.3 °F 11.5 °F 13.1 °F 74% 30.28 in 10.0 mi ESE 6.9 mph - N/A   Clear
11:15 PM 19.4 °F 11.5 °F 12.9 °F 76% 30.28 in 10.0 mi ESE 5.8 mph - N/A   Clear
11:35 PM 19.2 °F 11.3 °F 12.9 °F 76% 30.28 in 10.0 mi ESE 5.8 mph - N/A   Clear
11:55 PM 18.9 °F 10.8 °F 12.9 °F 78% 30.28 in 10.0 mi ESE 5.8 mph - N/A   Clear